Hourly Data Report for May 27, 2012

OTTAWA INTL A
ONTARIO

45°19'00.000" N
75°40'00.000" W
114.90 m
6106001
71628
YOW

Download Data

Hourly Data (May 2012)
Hourly Data Report for May 27, 2012
TIME
LST
Temp Definition
°C
Dew Point Definition
°C
Rel Hum Definition
%
Precip. Amount Definition
mm

Wind Dir Definition
10's deg

Wind Spd Definition
km/h
Visibility Definition
km
Stn Press Definition
kPa
Hmdx Definition


Wind Chill Definition


Weather Definition


00:00 13.7 7.7 67   1 9 10.0 100.91     LegendNANA
01:00 13.7 7.5 66   2 14 10.0 100.84     Mainly Clear
02:00 11.6 7.2 74   1 11 10.0 100.83     LegendNANA
03:00 12.3 7.0 70   0 8 10.0 100.92     LegendNANA
04:00 10.9 7.1 77   4 9 10.0 100.93     Mostly Cloudy
05:00 11.1 8.0 81   4 11 10.0 100.94     LegendNANA
06:00 13.2 8.7 74   4 10 10.0 100.94     LegendNANA
07:00 15.1 8.4 64   7 12 10.0 100.96     Mostly Cloudy
08:00 16.4 7.4 55   9 15 10.0 100.98     LegendNANA
09:00 18.2 7.7 50   9 14 10.0 100.95     LegendNANA
10:00 19.6 6.5 42   10 11 10.0 100.93     Mostly Cloudy
11:00 20.6 7.7 43   13 10 10.0 100.87     LegendNANA
12:00 22.2 8.9 42   33 4 10.0 100.82     LegendNANA
13:00 22.7 7.8 38   14 6 10.0 100.74     Mostly Cloudy
14:00 21.2 8.3 43   10 5 10.0 100.69     LegendNANA
15:00 21.0 9.4 47   6 8 10.0 100.66     LegendNANA
16:00 20.5 9.6 49   5 15 10.0 100.60     Mostly Cloudy
17:00 19.3 9.6 53   6 13 10.0 100.54     LegendNANA
18:00 19.2 9.2 52   8 13 10.0 100.44     LegendNANA
19:00 18.4 8.8 53   6 12 10.0 100.41     Mostly Cloudy
20:00 17.9 9.4 57   6 8 10.0 100.40     LegendNANA
21:00 16.8 10.3 65   12 7 10.0 100.39     LegendNANA
22:00 15.5 9.5 67   8 10 10.0 100.33     Mostly Cloudy
23:00 15.2 10.2 72   7 9 10.0 100.37     LegendNANA

Notes on Data Quality.

Legend

  • E = Estimated
  • M = Missing
  • NA = Not Available*
  • [empty] = Indicates an unobserved value
Date modified: